To NAV CANADA Home Page Login to a new session Search on AWWS site Feedback and Comments Disclaimer Vers la page française équivalente Tips FAQ What's new on the site To the Forecasts and Observations / NOTAM section To "File a Flight Plan" website Publications and other links Update of the User's profile FIC Telephone Numbers My Weather Data Folder Route Weather Data Regional Weather Data Local Weather Data To the Forecasts and Observations / NOTAM section
Request Generated 04/23/2014 at 19:42:58 UTC . Weather information available at that time is displayed.

METAR/TAF

SANIKILUAQ/NU    

METAR CYSK 231900Z 34015KT 15SM FEW014 BKN030 M06/M07 A3012 RMK SC2SC3 SLP203=
METAR CYSK 231800Z 34012KT 15SM -SN SCT008 OVC014 M06/M07 A3012 RMK ST3SC5 SLP204=
METAR CYSK 231700Z 34009KT 10SM -SN OVC008 M06/M08 A3012 RMK ST8 SLP202=

CYSK - No TAF is issued for this station

Your time UTC time
Weather data provided by Environment Canada and NAV CANADA